﻿測定場所 (Monitoring sites),日付 (Measurement date),時間 (Measurement time),線量率 最大値 (max) μGy/h,線量率 最小値 (min) μGy/h,線量率 平均値 (average) μGy/h,
足立 (Adachi),2013-11-03,23:01～24:00,0.0514,0.0454,0.0485,
足立 (Adachi),2013-11-03,22:01～23:00,0.0537,0.0464,0.0490,
足立 (Adachi),2013-11-03,21:01～22:00,0.0518,0.0447,0.0490,
足立 (Adachi),2013-11-03,20:01～21:00,0.0518,0.0460,0.0489,
足立 (Adachi),2013-11-03,19:01～20:00,0.0516,0.0452,0.0487,
足立 (Adachi),2013-11-03,18:01～19:00,0.0522,0.0453,0.0484,
足立 (Adachi),2013-11-03,17:01～18:00,0.0522,0.0442,0.0482,
足立 (Adachi),2013-11-03,16:01～17:00,0.0513,0.0445,0.0477,
足立 (Adachi),2013-11-03,15:01～16:00,0.0519,0.0453,0.0480,
足立 (Adachi),2013-11-03,14:01～15:00,0.0508,0.0438,0.0480,
足立 (Adachi),2013-11-03,13:01～14:00,0.0521,0.0445,0.0483,
足立 (Adachi),2013-11-03,12:01～13:00,0.0534,0.0456,0.0484,
足立 (Adachi),2013-11-03,11:01～12:00,0.0512,0.0448,0.0484,
足立 (Adachi),2013-11-03,10:01～11:00,0.0513,0.0454,0.0486,
足立 (Adachi),2013-11-03,09:01～10:00,0.0520,0.0466,0.0488,
足立 (Adachi),2013-11-03,08:01～09:00,0.0514,0.0455,0.0490,
足立 (Adachi),2013-11-03,07:01～08:00,0.0519,0.0443,0.0488,
足立 (Adachi),2013-11-03,06:01～07:00,0.0517,0.0453,0.0481,
足立 (Adachi),2013-11-03,05:01～06:00,0.0516,0.0441,0.0479,
足立 (Adachi),2013-11-03,04:01～05:00,0.0501,0.0446,0.0477,
足立 (Adachi),2013-11-03,03:01～04:00,0.0503,0.0438,0.0476,
足立 (Adachi),2013-11-03,02:01～03:00,0.0516,0.0445,0.0478,
足立 (Adachi),2013-11-03,01:01～02:00,0.0507,0.0449,0.0478,
足立 (Adachi),2013-11-03,00:01～01:00,0.0505,0.0449,0.0474,
足立 (Adachi),2013-11-02,23:01～24:00,0.0516,0.0448,0.0473,
足立 (Adachi),2013-11-02,22:01～23:00,0.0506,0.0437,0.0477,
足立 (Adachi),2013-11-02,21:01～22:00,0.0505,0.0448,0.0474,
足立 (Adachi),2013-11-02,20:01～21:00,0.0508,0.0443,0.0476,
足立 (Adachi),2013-11-02,19:01～20:00,0.0520,0.0454,0.0481,
足立 (Adachi),2013-11-02,18:01～19:00,0.0528,0.0439,0.0477,
足立 (Adachi),2013-11-02,17:01～18:00,0.0513,0.0449,0.0481,
足立 (Adachi),2013-11-02,16:01～17:00,0.0526,0.0454,0.0488,
足立 (Adachi),2013-11-02,15:01～16:00,0.0546,0.0471,0.0510,
足立 (Adachi),2013-11-02,14:01～15:00,0.0524,0.0456,0.0486,
足立 (Adachi),2013-11-02,13:01～14:00,0.0527,0.0447,0.0476,
足立 (Adachi),2013-11-02,12:01～13:00,0.0513,0.0449,0.0479,
足立 (Adachi),2013-11-02,11:01～12:00,0.0518,0.0443,0.0486,
足立 (Adachi),2013-11-02,10:01～11:00,0.0506,0.0442,0.0481,
足立 (Adachi),2013-11-02,09:01～10:00,0.0515,0.0456,0.0486,
足立 (Adachi),2013-11-02,08:01～09:00,0.0514,0.0455,0.0482,
足立 (Adachi),2013-11-02,07:01～08:00,0.0504,0.0440,0.0476,
足立 (Adachi),2013-11-02,06:01～07:00,0.0508,0.0451,0.0479,
足立 (Adachi),2013-11-02,05:01～06:00,0.0500,0.0453,0.0477,
足立 (Adachi),2013-11-02,04:01～05:00,0.0507,0.0449,0.0480,
足立 (Adachi),2013-11-02,03:01～04:00,0.0519,0.0438,0.0482,
足立 (Adachi),2013-11-02,02:01～03:00,0.0525,0.0437,0.0485,
足立 (Adachi),2013-11-02,01:01～02:00,0.0510,0.0449,0.0484,
足立 (Adachi),2013-11-02,00:01～01:00,0.0509,0.0443,0.0480,
足立 (Adachi),2013-11-01,23:01～24:00,0.0507,0.0447,0.0475,
足立 (Adachi),2013-11-01,22:01～23:00,0.0510,0.0442,0.0475,
足立 (Adachi),2013-11-01,21:01～22:00,0.0512,0.0435,0.0472,
足立 (Adachi),2013-11-01,20:01～21:00,0.0500,0.0431,0.0468,
足立 (Adachi),2013-11-01,19:01～20:00,0.0500,0.0427,0.0470,
足立 (Adachi),2013-11-01,18:01～19:00,0.0500,0.0438,0.0470,
足立 (Adachi),2013-11-01,17:01～18:00,0.0503,0.0438,0.0469,
足立 (Adachi),2013-11-01,16:01～17:00,0.0504,0.0410,0.0467,
足立 (Adachi),2013-11-01,15:01～16:00,0.0566,0.0436,0.0466,
足立 (Adachi),2013-11-01,14:01～15:00,0.0491,0.0424,0.0463,
足立 (Adachi),2013-11-01,13:01～14:00,0.0508,0.0429,0.0472,
足立 (Adachi),2013-11-01,12:01～13:00,0.0507,0.0448,0.0473,
足立 (Adachi),2013-11-01,11:01～12:00,0.0498,0.0447,0.0471,
足立 (Adachi),2013-11-01,10:01～11:00,0.0515,0.0444,0.0476,
足立 (Adachi),2013-11-01,09:01～10:00,0.0507,0.0430,0.0472,
足立 (Adachi),2013-11-01,08:01～09:00,0.0503,0.0440,0.0472,
足立 (Adachi),2013-11-01,07:01～08:00,0.0497,0.0439,0.0468,
足立 (Adachi),2013-11-01,06:01～07:00,0.0496,0.0450,0.0471,
足立 (Adachi),2013-11-01,05:01～06:00,0.0501,0.0441,0.0470,
足立 (Adachi),2013-11-01,04:01～05:00,0.0507,0.0446,0.0473,
足立 (Adachi),2013-11-01,03:01～04:00,0.0533,0.0444,0.0475,
足立 (Adachi),2013-11-01,02:01～03:00,0.0498,0.0448,0.0473,
足立 (Adachi),2013-11-01,01:01～02:00,0.0520,0.0438,0.0478,
足立 (Adachi),2013-11-01,00:01～01:00,0.0509,0.0443,0.0476,
足立 (Adachi),2013-10-31,23:01～24:00,0.0503,0.0446,0.0474,
足立 (Adachi),2013-10-31,22:01～23:00,0.0501,0.0449,0.0479,
足立 (Adachi),2013-10-31,21:01～22:00,0.0498,0.0447,0.0472,
足立 (Adachi),2013-10-31,20:01～21:00,0.0499,0.0450,0.0471,
足立 (Adachi),2013-10-31,19:01～20:00,0.0499,0.0432,0.0470,
足立 (Adachi),2013-10-31,18:01～19:00,0.0500,0.0439,0.0469,
足立 (Adachi),2013-10-31,17:01～18:00,0.0497,0.0439,0.0469,
足立 (Adachi),2013-10-31,16:01～17:00,0.0493,0.0437,0.0461,
足立 (Adachi),2013-10-31,15:01～16:00,0.0504,0.0449,0.0469,
足立 (Adachi),2013-10-31,14:01～15:00,0.0508,0.0431,0.0467,
足立 (Adachi),2013-10-31,13:01～14:00,0.0502,0.0445,0.0465,
足立 (Adachi),2013-10-31,12:01～13:00,0.0507,0.0440,0.0469,
足立 (Adachi),2013-10-31,11:01～12:00,0.0505,0.0441,0.0472,
足立 (Adachi),2013-10-31,10:01～11:00,0.0505,0.0443,0.0472,
足立 (Adachi),2013-10-31,09:01～10:00,0.0510,0.0433,0.0472,
足立 (Adachi),2013-10-31,08:01～09:00,0.0507,0.0429,0.0468,
足立 (Adachi),2013-10-31,07:01～08:00,0.0491,0.0407,0.0459,
足立 (Adachi),2013-10-31,06:01～07:00,0.0500,0.0443,0.0469,
足立 (Adachi),2013-10-31,05:01～06:00,0.0497,0.0438,0.0467,
足立 (Adachi),2013-10-31,04:01～05:00,0.0510,0.0444,0.0474,
足立 (Adachi),2013-10-31,03:01～04:00,0.0513,0.0429,0.0471,
足立 (Adachi),2013-10-31,02:01～03:00,0.0495,0.0436,0.0469,
足立 (Adachi),2013-10-31,01:01～02:00,0.0505,0.0436,0.0470,
足立 (Adachi),2013-10-31,00:01～01:00,0.0501,0.0444,0.0468,
足立 (Adachi),2013-10-30,23:01～24:00,0.0495,0.0442,0.0468,
足立 (Adachi),2013-10-30,22:01～23:00,0.0510,0.0436,0.0468,
足立 (Adachi),2013-10-30,21:01～22:00,0.0515,0.0433,0.0471,
足立 (Adachi),2013-10-30,20:01～21:00,0.0526,0.0455,0.0480,
足立 (Adachi),2013-10-30,19:01～20:00,0.0526,0.0447,0.0492,
足立 (Adachi),2013-10-30,18:01～19:00,0.0501,0.0440,0.0466,
足立 (Adachi),2013-10-30,17:01～18:00,0.0490,0.0417,0.0460,
足立 (Adachi),2013-10-30,16:01～17:00,0.0487,0.0419,0.0456,
足立 (Adachi),2013-10-30,15:01～16:00,0.0495,0.0428,0.0461,
足立 (Adachi),2013-10-30,14:01～15:00,0.0489,0.0430,0.0462,
足立 (Adachi),2013-10-30,13:01～14:00,0.0504,0.0423,0.0460,
足立 (Adachi),2013-10-30,12:01～13:00,0.0494,0.0422,0.0459,
足立 (Adachi),2013-10-30,11:01～12:00,0.0491,0.0432,0.0462,
足立 (Adachi),2013-10-30,10:01～11:00,0.0499,0.0429,0.0465,
足立 (Adachi),2013-10-30,09:01～10:00,0.0497,0.0433,0.0460,
足立 (Adachi),2013-10-30,08:01～09:00,0.0499,0.0432,0.0465,
足立 (Adachi),2013-10-30,07:01～08:00,0.0483,0.0437,0.0461,
足立 (Adachi),2013-10-30,06:01～07:00,0.0498,0.0437,0.0464,
足立 (Adachi),2013-10-30,05:01～06:00,0.0497,0.0428,0.0462,
足立 (Adachi),2013-10-30,04:01～05:00,0.0496,0.0423,0.0470,
足立 (Adachi),2013-10-30,03:01～04:00,0.0508,0.0432,0.0471,
足立 (Adachi),2013-10-30,02:01～03:00,0.0504,0.0442,0.0469,
足立 (Adachi),2013-10-30,01:01～02:00,0.0508,0.0450,0.0472,
足立 (Adachi),2013-10-30,00:01～01:00,0.0512,0.0450,0.0477,
足立 (Adachi),2013-10-29,23:01～24:00,0.0522,0.0444,0.0490,
足立 (Adachi),2013-10-29,22:01～23:00,0.0527,0.0436,0.0486,
足立 (Adachi),2013-10-29,21:01～22:00,0.0507,0.0446,0.0470,
足立 (Adachi),2013-10-29,20:01～21:00,0.0489,0.0432,0.0465,
足立 (Adachi),2013-10-29,19:01～20:00,0.0492,0.0435,0.0464,
足立 (Adachi),2013-10-29,18:01～19:00,0.0493,0.0437,0.0464,
足立 (Adachi),2013-10-29,17:01～18:00,0.0500,0.0441,0.0471,
足立 (Adachi),2013-10-29,16:01～17:00,0.0526,0.0459,0.0488,
足立 (Adachi),2013-10-29,15:01～16:00,0.0573,0.0478,0.0517,
足立 (Adachi),2013-10-29,14:01～15:00,0.0575,0.0499,0.0531,
足立 (Adachi),2013-10-29,13:01～14:00,0.0573,0.0493,0.0527,
足立 (Adachi),2013-10-29,12:01～13:00,0.0555,0.0478,0.0517,
足立 (Adachi),2013-10-29,11:01～12:00,0.0525,0.0449,0.0489,
足立 (Adachi),2013-10-29,10:01～11:00,0.0512,0.0452,0.0486,
足立 (Adachi),2013-10-29,09:01～10:00,0.0523,0.0440,0.0480,
足立 (Adachi),2013-10-29,08:01～09:00,0.0514,0.0448,0.0478,
足立 (Adachi),2013-10-29,07:01～08:00,0.0510,0.0436,0.0477,
足立 (Adachi),2013-10-29,06:01～07:00,0.0516,0.0447,0.0475,
足立 (Adachi),2013-10-29,05:01～06:00,0.0512,0.0450,0.0478,
足立 (Adachi),2013-10-29,04:01～05:00,0.0524,0.0458,0.0481,
足立 (Adachi),2013-10-29,03:01～04:00,0.0502,0.0444,0.0477,
足立 (Adachi),2013-10-29,02:01～03:00,0.0517,0.0455,0.0482,
足立 (Adachi),2013-10-29,01:01～02:00,0.0512,0.0442,0.0478,
足立 (Adachi),2013-10-29,00:01～01:00,0.0504,0.0446,0.0478,
足立 (Adachi),2013-10-28,23:01～24:00,0.0508,0.0445,0.0473,
足立 (Adachi),2013-10-28,22:01～23:00,0.0503,0.0435,0.0470,
足立 (Adachi),2013-10-28,21:01～22:00,0.0504,0.0424,0.0468,
足立 (Adachi),2013-10-28,20:01～21:00,0.0509,0.0432,0.0465,
足立 (Adachi),2013-10-28,19:01～20:00,0.0508,0.0432,0.0463,
足立 (Adachi),2013-10-28,18:01～19:00,0.0494,0.0427,0.0464,
足立 (Adachi),2013-10-28,17:01～18:00,0.0497,0.0430,0.0461,
足立 (Adachi),2013-10-28,16:01～17:00,0.0497,0.0429,0.0465,
足立 (Adachi),2013-10-28,15:01～16:00,0.0505,0.0436,0.0466,
足立 (Adachi),2013-10-28,14:01～15:00,0.0499,0.0437,0.0464,
足立 (Adachi),2013-10-28,13:01～14:00,0.0508,0.0429,0.0467,
足立 (Adachi),2013-10-28,12:01～13:00,0.0500,0.0435,0.0467,
足立 (Adachi),2013-10-28,11:01～12:00,0.0508,0.0442,0.0473,
足立 (Adachi),2013-10-28,10:01～11:00,0.0510,0.0436,0.0470,
足立 (Adachi),2013-10-28,09:01～10:00,0.0506,0.0435,0.0469,
足立 (Adachi),2013-10-28,08:01～09:00,0.0503,0.0432,0.0471,
足立 (Adachi),2013-10-28,07:01～08:00,0.0501,0.0441,0.0471,
足立 (Adachi),2013-10-28,06:01～07:00,0.0519,0.0442,0.0477,
足立 (Adachi),2013-10-28,05:01～06:00,0.0537,0.0441,0.0477,
足立 (Adachi),2013-10-28,04:01～05:00,0.0503,0.0448,0.0473,
足立 (Adachi),2013-10-28,03:01～04:00,0.0494,0.0430,0.0470,
足立 (Adachi),2013-10-28,02:01～03:00,0.0505,0.0446,0.0472,
足立 (Adachi),2013-10-28,01:01～02:00,0.0504,0.0425,0.0466,
足立 (Adachi),2013-10-28,00:01～01:00,0.0506,0.0443,0.0470,
